User: anonymous   Login
Location: Équennes
(49.7375°N, 1.9622°E)
Time: 05:35:08
(UTC+00:00)
Language:

BlueWalker 3 - Orbit

View from above orbital plane
View from above orbital plane
View from above satellite
View from above satellite

Ground track
Ground track

The orbit data is extracted from the following two-line orbital elements,

1 53807U 22111AL  23151.39507124  .00004102  00000-0  19844-3 0  9999
2 53807  53.1967 150.0889 0013101   1.7506 358.3535 15.20726712 39896
Epoch (UTC): 31 May 2023 09:28:54
Eccentricity: 0.0013101
inclination: 53.1967°
perigee height: 494 km
apogee height: 512 km
right ascension of ascending node: 150.0889°
argument of perigee: 1.7506°
revolutions per day: 15.20726712
mean anomaly at epoch: 358.3535°
orbit number at epoch: 3989

The dashed part of the orbit path shows where the satellite is in the earth's shadow,  

DLR